GFSSW_850_temp_000.txt.gz
Temp
15 16 16 16 16 17 17 17 17 18 18 18 18 19 20 21 21 22 20 22 23 22 22 22 20 21 21 23 23 24 26 26 27 27 28 28 27 26 24 25 23 23 23 21 20
14 14 14 15 16 16 16 16 16 17 17 18 18 18 19 20 21 21 22 23 23 22 21 20 21 21 23 24 24 25 26 27 28 28 28 28 27 27 25 25 23 22 20 20 20
12 13 14 14 14 14 14 15 16 16 16 15 16 17 18 19 19 23 23 23 24 23 21 22 23 22 24 24 25 25 26 27 27 27 27 27 27 26 26 27 25 25 24 19 19
12 12 12 12 13 13 14 14 15 15 15 16 17 17 18 18 23 22 22 21 22 21 21 22 23 23 25 26 25 25 26 26 27 27 26 27 26 26 25 26 24 24 23 21 20
11 11 12 12 13 13 13 13 14 14 14 15 16 17 17 17 19 21 21 21 21 21 20 22 23 24 26 26 26 26 27 26 26 26 26 25 26 26 26 25 23 23 22 21 20
9 10 10 11 12 12 13 14 14 14 15 15 16 16 15 17 20 21 21 21 20 19 20 22 24 24 26 26 27 26 26 26 26 26 26 26 26 24 26 24 23 22 21 21 20
6 7 8 10 11 13 13 13 13 14 15 15 15 15 14 18 20 21 19 19 21 21 21 22 24 25 25 26 26 25 25 27 26 26 27 25 26 25 26 23 23 21 21 21 19
4 5 7 9 10 12 13 13 14 14 14 14 14 14 15 18 20 20 19 19 20 20 21 22 23 24 25 26 25 26 26 26 28 26 25 25 24 26 26 23 23 23 21 20 18
4 3 4 7 9 10 12 13 13 14 14 14 14 13 17 18 19 21 19 19 20 20 20 21 22 24 24 25 26 26 25 26 27 27 26 25 25 27 26 24 24 23 21 20 19
4 3 3 4 7 8 11 12 13 13 14 13 11 12 17 19 19 19 19 19 21 21 21 22 23 25 26 26 25 25 25 26 25 27 26 26 26 26 26 25 23 23 22 20 19
3 4 4 3 4 7 10 12 11 11 9 16 16 18 19 19 19 19 19 19 21 22 24 23 25 24 26 26 27 27 25 25 26 27 25 26 26 26 26 26 25 24 22 20 19
2 3 3 4 3 6 8 9 9 9 12 14 14 15 17 17 19 20 19 21 21 23 25 24 24 26 27 27 26 25 25 25 26 26 25 25 25 26 26 26 26 24 22 20 19
2 2 3 3 4 5 6 7 9 9 12 16 16 16 17 17 19 21 20 21 23 24 25 25 26 27 26 25 24 25 25 25 25 25 25 25 25 26 26 26 25 23 23 21 19
2 2 2 3 4 5 6 5 8 9 15 20 17 17 18 18 19 20 20 22 24 25 26 25 27 26 25 25 25 24 26 25 24 24 24 25 23 25 26 27 27 25 23 22 19
2 2 2 2 4 5 6 5 6 8 17 24 20 19 19 19 23 21 20 22 24 25 26 25 26 25 25 25 26 25 26 25 24 24 24 24 24 25 27 26 27 28 25 22 20
2 2 2 3 3 5 5 6 7 14 16 21 20 19 20 20 23 23 21 22 23 25 26 26 26 26 26 26 26 26 24 24 24 24 22 25 25 25 26 26 27 27 25 22 19
2 2 2 2 3 4 4 6 13 16 22 21 20 20 21 20 22 21 21 22 23 22 23 24 25 26 26 25 25 25 24 22 22 23 23 24 23 25 27 27 27 27 26 21 19
2 2 2 1 3 3 4 9 13 18 20 22 22 21 21 22 22 22 22 22 24 24 25 24 23 25 25 25 24 24 24 24 21 22 24 23 23 26 27 27 25 24 23 21 19
1 1 1 2 3 3 4 9 14 18 21 21 22 21 21 22 23 23 23 23 24 25 25 25 25 26 26 26 26 25 23 25 24 24 23 25 25 26 27 27 26 24 22 20 19
1 2 3 2 2 2 3 9 14 19 20 22 20 22 21 22 22 23 23 24 24 25 26 25 24 25 25 25 26 26 26 22 23 21 21 24 24 25 26 26 25 24 22 20 19
0 2 3 3 2 1 4 8 12 16 17 18 20 22 23 23 22 23 24 25 25 25 25 25 25 24 25 24 25 24 24 24 25 25 23 23 24 27 26 26 26 25 22 20 19
2 3 3 2 2 1 3 9 11 13 13 16 17 20 22 23 23 23 23 24 25 26 24 25 24 23 23 26 26 26 24 24 23 22 23 24 25 27 27 26 26 25 22 21 20
1 2 2 2 3 3 7 8 10 12 11 13 15 19 21 22 21 23 23 24 24 25 24 24 23 22 23 23 24 24 25 25 24 24 23 24 24 27 26 26 25 24 22 21 21
1 2 1 1 1 7 7 7 6 10 11 10 12 14 16 20 22 22 23 24 24 25 23 23 23 23 23 23 24 23 24 25 24 23 23 24 25 27 26 26 25 24 22 21 21
1 2 2 3 2 4 6 6 7 8 10 11 12 14 17 18 20 21 23 23 23 23 22 23 22 24 25 26 25 24 24 24 24 24 24 25 25 26 27 27 27 24 22 22 21
-0 1 -0 2 3 4 5 6 7 8 8 11 11 13 15 16 19 21 22 22 22 24 23 23 22 24 23 25 25 24 25 25 24 25 25 25 25 27 27 27 26 24 23 22 22
0 0 0 2 2 3 3 5 7 9 9 11 12 13 13 15 14 16 17 19 21 22 22 22 22 22 22 24 24 23 24 25 25 25 25 24 26 27 27 26 26 25 23 23 22

GFSSW_850_temp_003.txt.gz
Temp
14 14 15 15 16 16 16 17 17 18 18 18 18 18 19 20 20 20 20 22 24 22 22 21 22 23 23 25 25 27 27 28 29 29 30 30 30 29 28 27 27 26 26 25 23
13 13 14 15 16 15 15 16 16 17 17 18 18 18 19 19 20 20 22 22 23 24 21 22 23 24 24 25 26 27 28 28 30 30 29 29 29 29 29 28 27 26 25 22 22
13 13 13 14 14 15 15 16 16 16 16 17 17 17 18 18 19 24 24 23 23 23 22 23 25 25 25 26 27 28 27 29 29 29 29 29 29 29 29 28 28 27 27 24 22
13 13 13 13 14 14 15 16 16 16 16 16 16 17 17 17 24 23 23 23 22 21 21 24 24 26 26 28 28 28 28 28 28 28 29 29 29 29 28 28 27 27 26 25 23
11 12 13 13 13 13 14 15 15 15 15 15 15 15 15 17 20 22 21 22 21 19 20 24 25 26 27 28 28 28 28 27 28 28 28 28 28 28 28 28 27 26 25 25 24
5 8 10 11 12 13 13 13 14 14 14 15 15 14 14 17 20 22 21 21 21 19 21 23 25 26 27 27 28 28 28 28 28 29 28 28 28 27 28 27 26 26 25 25 24
4 4 5 9 10 11 12 13 13 14 14 13 14 13 13 17 21 22 21 21 22 21 22 23 24 25 26 27 28 28 28 29 29 28 29 28 27 28 27 27 27 26 24 24 24
4 4 4 4 8 9 11 13 13 13 14 14 14 13 14 18 19 20 21 21 21 22 23 23 23 25 26 27 28 28 28 27 29 30 28 27 26 29 28 27 27 26 26 25 24
4 4 4 4 4 7 10 12 12 13 14 14 13 12 17 19 19 20 21 22 22 22 23 23 24 24 26 27 27 27 26 27 28 30 29 28 27 29 28 28 27 26 26 25 23
3 3 4 4 4 5 9 10 12 12 13 12 12 14 17 20 21 20 21 21 22 22 22 23 24 26 27 27 25 27 28 28 28 30 29 28 28 29 28 28 27 27 26 25 23
3 3 3 3 4 4 6 8 11 11 11 16 18 18 22 21 21 21 21 22 22 23 23 24 25 25 26 27 28 28 28 28 29 30 29 28 27 28 29 28 28 28 27 26 24
3 3 2 3 4 4 5 8 14 10 15 14 16 18 19 21 21 21 21 22 22 24 25 26 25 27 28 28 28 28 28 28 29 29 28 27 27 28 29 28 28 28 27 26 23
3 3 2 3 3 4 5 9 10 10 14 17 18 18 19 20 21 23 22 22 24 24 25 26 27 28 28 28 28 28 27 27 27 28 28 27 27 28 29 29 28 28 27 26 24
4 3 2 3 5 6 9 9 9 10 16 20 21 20 20 20 22 21 23 23 25 25 26 27 29 28 28 28 28 27 28 28 27 26 25 28 25 27 28 29 29 28 27 26 24
3 3 2 2 4 7 9 8 9 10 17 26 25 22 22 21 24 23 23 23 25 26 27 26 28 28 27 28 29 27 28 28 27 26 26 26 26 27 29 28 28 29 28 26 24
2 3 3 3 3 5 7 7 9 14 17 24 24 22 24 22 23 26 23 23 24 27 27 28 29 29 29 29 28 29 27 27 27 26 24 26 26 27 29 28 28 29 28 26 24
3 2 3 3 4 5 6 8 12 16 22 24 24 24 24 23 23 26 24 24 24 24 25 27 28 29 29 28 28 28 26 24 23 24 24 28 26 27 28 29 29 29 28 26 23
3 2 2 3 4 4 5 10 12 18 21 26 25 24 24 25 24 25 24 24 25 26 27 26 26 28 29 28 27 27 26 25 23 24 26 27 25 27 29 29 28 28 27 25 22
2 2 2 3 4 4 4 9 12 18 22 23 25 24 24 26 25 25 25 24 26 26 26 27 27 29 29 28 29 27 25 27 26 26 26 27 28 29 28 29 28 28 26 24 22
2 2 2 4 3 3 3 7 13 17 19 22 22 24 23 25 25 25 24 26 26 27 28 28 26 29 29 28 28 28 28 25 26 23 23 26 26 27 27 28 28 27 25 23 22
2 1 5 4 3 3 3 7 12 14 17 17 19 21 24 25 26 26 26 27 27 27 28 28 28 28 29 26 27 27 27 26 26 26 25 24 27 29 28 28 27 27 25 23 22
0 3 6 4 3 2 4 9 10 14 15 16 16 17 19 25 26 25 26 27 28 28 26 28 27 26 27 29 28 28 27 27 25 24 26 27 27 29 28 28 28 27 25 23 23
3 5 3 3 4 5 8 9 9 12 13 14 15 15 18 19 21 26 26 29 28 28 27 27 26 25 26 27 27 26 27 27 26 26 25 25 26 29 28 28 27 27 25 24 23
1 3 4 2 1 4 6 9 9 10 12 12 14 15 15 16 20 22 26 28 28 28 26 26 26 25 26 26 27 25 26 27 26 25 25 26 27 27 28 28 28 27 26 25 23
3 4 5 4 4 5 5 7 8 10 11 12 12 14 15 17 20 22 25 27 27 26 25 26 24 26 27 28 27 26 26 27 26 26 25 26 27 28 29 28 28 27 26 25 24
1 4 4 4 5 6 6 7 8 9 10 11 12 13 15 15 19 20 23 24 25 26 26 25 24 25 25 27 28 26 26 27 27 27 26 27 27 29 29 29 28 27 26 25 24
1 1 1 2 5 5 5 7 8 9 11 9 11 13 13 14 12 14 16 18 22 25 25 24 24 24 24 26 27 26 27 27 27 27 27 26 27 29 29 29 28 28 27 26 25

GFSSW_850_temp_006.txt.gz
Temp
14 14 15 15 15 15 15 16 16 16 17 17 18 18 19 19 19 20 21 23 23 23 22 22 22 23 24 24 26 26 26 26 28 29 30 31 31 30 30 29 28 28 27 26 24
13 13 14 14 15 15 15 15 15 16 16 16 17 18 18 19 19 21 23 22 22 23 22 22 22 24 25 25 26 27 26 27 29 30 30 30 30 30 30 29 29 28 27 25 24
13 13 13 13 14 14 15 15 15 15 15 16 17 17 18 17 18 23 24 23 23 22 23 23 24 24 25 26 26 27 27 28 29 29 29 29 29 29 30 29 29 28 28 25 24
11 11 12 13 13 14 14 14 15 15 15 16 16 17 17 17 21 23 23 23 23 22 21 23 24 25 26 27 27 27 28 29 29 29 29 29 29 29 29 29 29 28 27 26 24
7 10 11 11 12 13 13 14 14 14 15 15 15 16 16 16 18 21 21 21 22 21 21 22 24 25 26 27 27 28 29 29 29 28 28 29 29 29 29 29 28 28 27 26 26
4 5 6 8 10 11 13 13 14 14 14 14 15 15 14 15 20 20 21 20 21 22 21 22 23 25 26 27 28 28 29 29 29 28 29 29 29 29 29 28 28 27 27 26 26
4 4 4 4 6 10 11 12 13 14 14 15 14 13 11 15 20 21 22 22 21 20 21 22 22 24 26 27 27 28 28 29 29 29 29 29 28 28 28 28 28 27 27 26 26
4 4 4 4 4 5 9 10 12 13 13 14 13 12 11 16 19 21 21 21 22 23 23 23 24 24 25 26 27 27 27 27 29 30 30 29 27 29 29 29 28 28 27 27 25
3 4 4 4 4 4 5 8 10 11 12 12 12 12 15 18 18 22 21 21 23 23 23 23 24 24 24 25 25 26 26 26 28 30 30 30 27 29 29 29 29 28 28 27 26
4 4 4 3 4 4 5 7 11 10 12 10 11 13 15 18 19 20 20 22 22 23 23 23 24 25 25 25 23 25 26 27 27 29 30 29 28 29 29 29 28 28 28 28 26
4 4 3 3 3 3 4 6 11 10 9 14 16 17 21 21 21 21 22 22 22 23 23 23 24 23 24 25 26 27 27 28 29 31 28 28 29 29 30 29 29 29 29 28 26
3 4 4 3 3 3 3 5 11 12 14 14 15 17 18 21 22 22 23 22 23 23 24 24 23 24 26 26 26 26 27 27 29 30 30 29 29 29 29 29 29 29 28 28 26
3 3 4 3 4 4 4 6 8 11 13 15 16 16 17 19 21 22 22 23 24 23 23 23 24 25 26 26 26 27 27 27 28 29 29 29 28 28 29 30 30 29 28 28 25
3 3 3 3 5 6 8 9 10 11 13 17 19 19 19 19 21 22 23 23 24 23 24 25 26 26 26 26 27 26 28 28 28 27 26 28 26 28 29 29 30 29 28 27 25
3 3 3 2 5 5 8 10 11 11 13 24 23 22 22 21 23 22 23 24 23 24 25 24 26 26 27 27 28 28 29 29 28 27 27 26 25 27 29 28 29 29 29 27 25
3 3 3 3 3 5 6 8 10 12 14 22 27 24 23 22 22 26 23 23 24 25 26 26 28 28 28 29 29 29 29 28 28 27 25 26 26 26 28 29 29 29 29 27 25
3 3 3 2 4 6 7 7 10 12 20 22 25 25 23 23 23 23 23 23 24 23 24 26 26 28 29 28 29 29 27 25 24 24 24 27 26 27 29 29 29 29 28 26 24
3 3 3 2 3 5 5 7 9 14 16 25 26 25 23 25 24 23 24 23 25 24 24 24 25 27 29 29 28 28 27 25 23 23 25 28 26 28 29 30 29 29 28 25 24
2 2 2 3 4 4 4 5 10 13 19 19 21 22 24 25 26 24 24 24 25 25 24 25 26 29 29 30 30 28 26 28 26 27 26 27 28 29 29 29 29 28 27 25 23
2 2 2 4 4 4 4 5 11 14 16 17 16 20 19 24 25 25 24 26 25 26 27 26 26 29 29 30 30 29 29 26 26 23 23 26 27 27 27 28 28 28 26 24 23
2 2 5 4 4 3 4 7 10 11 13 13 15 16 17 17 21 25 25 26 27 27 27 27 27 28 30 28 27 28 28 27 27 26 24 24 26 29 28 28 25 25 26 24 22
2 2 5 5 3 2 4 8 9 11 11 12 14 14 15 17 18 19 25 26 28 28 26 27 26 25 28 30 30 28 27 27 25 24 26 26 26 29 29 28 28 26 25 23 23
3 5 4 3 4 4 7 8 9 10 11 12 12 13 14 15 15 20 22 28 29 27 27 26 25 25 26 29 29 27 28 28 27 26 25 25 26 29 29 28 28 26 25 24 23
2 3 5 3 4 5 7 8 8 9 11 12 10 12 12 12 16 17 20 25 29 29 26 25 25 24 25 27 28 26 27 28 27 25 25 26 27 27 28 28 28 27 25 24 23
2 5 6 5 5 5 4 6 8 7 11 12 11 11 11 12 14 17 16 14 19 25 25 25 23 26 27 28 29 28 27 27 27 27 26 26 27 28 28 28 28 27 26 25 24
2 4 5 5 6 6 7 7 9 10 11 10 10 12 12 11 13 13 13 14 15 15 26 25 23 25 26 27 28 27 28 27 28 28 27 27 27 29 29 28 29 27 26 26 25
2 2 3 4 6 6 7 7 8 9 11 12 11 11 10 10 13 13 14 14 15 15 17 24 24 24 24 27 27 26 28 28 27 28 28 26 27 29 29 29 29 27 26 26 25

GFSSW_850_temp_009.txt.gz
Temp
13 14 14 14 15 15 15 15 15 16 16 17 17 17 17 17 18 19 21 23 23 23 22 22 22 22 22 22 23 23 20 21 22 24 25 28 27 30 30 29 29 28 27 26 24
12 13 13 14 14 15 15 15 15 15 16 16 15 16 17 17 17 20 23 24 23 23 22 22 22 22 22 23 23 23 21 23 25 26 26 27 28 28 28 28 28 27 27 26 25
11 12 12 13 13 14 14 14 14 15 15 15 15 16 16 16 16 21 23 24 24 22 22 22 22 22 22 23 24 24 23 25 26 27 27 27 27 28 28 26 29 27 26 26 25
7 9 11 11 11 12 13 14 14 14 14 14 15 15 15 15 16 22 22 22 23 22 22 21 22 22 22 22 24 23 25 25 26 27 28 26 28 27 28 28 29 28 27 26 25
5 5 7 7 8 11 12 12 13 13 14 14 14 14 14 14 16 22 22 22 22 22 21 21 21 22 21 23 24 24 25 26 27 27 28 28 27 27 27 29 28 28 27 26 25
5 5 5 6 7 8 10 11 12 12 13 13 13 13 12 10 20 20 21 20 21 21 21 20 21 22 23 23 23 25 26 26 27 27 28 27 27 27 28 29 28 28 27 27 26
5 4 5 5 5 6 7 10 11 12 13 12 12 12 10 13 19 20 19 20 20 21 21 22 21 22 23 22 25 25 24 25 26 27 26 28 26 26 29 29 28 27 27 27 26
4 5 4 4 5 5 6 9 11 12 12 12 12 10 8 15 19 19 21 20 20 20 21 22 22 21 22 23 23 22 23 23 25 26 27 27 24 26 29 28 28 28 28 27 26
4 5 5 4 4 5 5 7 12 11 11 11 11 10 10 16 17 21 21 21 22 21 21 22 22 22 22 21 20 22 20 22 24 26 26 26 25 27 29 29 28 27 28 27 27
4 4 5 5 5 5 4 7 12 11 11 9 9 8 12 16 18 19 20 19 20 21 22 22 22 20 21 20 19 20 21 23 23 25 26 26 25 25 28 28 28 28 28 27 27
4 4 5 5 5 5 5 6 10 9 8 10 11 13 18 19 20 19 19 19 19 21 19 22 19 19 21 22 22 22 22 23 24 26 26 25 25 25 26 27 26 27 27 27 27
5 5 5 5 5 5 4 4 8 7 8 11 13 13 15 17 17 20 21 20 19 18 20 20 19 21 23 23 22 23 22 22 24 26 26 25 24 25 26 25 27 28 28 27 23
5 5 5 5 6 6 6 6 9 8 8 11 13 13 14 15 16 18 20 21 20 19 20 19 21 23 23 22 23 23 22 22 23 25 26 25 23 24 27 27 28 28 28 25 24
4 4 4 4 5 5 7 8 9 9 7 12 15 15 15 15 16 18 19 22 21 20 20 20 22 23 22 22 23 22 24 24 24 24 21 26 20 23 24 23 24 27 26 24 23
3 3 3 3 4 6 8 8 9 10 7 17 17 19 17 16 20 19 20 21 21 21 21 20 21 22 22 22 24 23 25 25 25 24 23 23 21 21 24 23 24 25 24 24 23
3 3 3 3 3 6 6 6 8 8 7 17 22 20 18 17 19 23 20 20 22 22 22 21 23 23 22 24 25 25 25 24 24 23 20 22 21 22 22 24 25 27 27 22 22
3 3 3 2 3 4 5 6 6 8 15 18 20 21 20 18 18 19 19 19 19 19 19 22 22 24 25 23 25 25 22 20 18 19 17 23 22 22 23 24 25 21 21 22 22
3 3 3 3 4 3 4 4 5 11 10 14 15 17 17 21 18 19 19 18 20 20 19 19 20 23 25 24 24 24 23 20 18 18 20 23 22 24 25 26 26 25 24 23 21
3 3 3 4 3 3 3 4 6 9 12 14 14 14 17 18 20 19 19 19 20 20 19 20 20 24 25 26 25 24 23 23 21 22 20 21 23 25 25 24 23 22 23 22 21
2 2 3 3 3 3 2 4 7 10 12 12 10 13 12 13 14 16 20 21 21 21 21 21 20 24 25 26 26 25 24 22 18 19 19 21 22 21 22 23 22 20 20 21 21
2 2 5 4 3 2 3 4 7 9 9 10 10 10 11 11 13 14 16 20 23 22 22 22 20 22 24 24 24 24 24 22 20 19 17 18 18 21 22 22 21 20 21 22 21
2 2 4 4 3 2 3 5 8 8 9 10 10 11 10 11 11 11 14 18 22 24 21 22 18 19 22 26 26 25 22 21 22 19 20 19 19 22 21 21 21 21 22 22 21
2 3 4 4 3 3 5 6 7 8 9 8 9 10 11 9 7 11 15 17 18 16 22 22 20 17 21 22 25 24 25 23 20 19 19 19 18 22 22 22 23 21 22 22 21
2 2 4 3 3 3 4 5 6 8 9 9 8 9 10 9 10 10 12 15 15 17 16 22 20 20 19 22 24 24 24 24 21 18 20 22 22 24 22 22 21 22 22 22 22
2 3 4 2 4 4 5 5 5 6 8 9 6 9 10 8 8 9 11 12 14 15 14 17 21 20 22 23 24 25 25 24 23 22 22 22 23 22 22 22 22 23 23 22 22
1 3 3 3 5 5 5 5 6 7 9 9 8 7 9 9 9 7 8 8 10 12 11 12 19 21 21 24 24 25 25 25 25 24 23 22 23 22 23 27 22 22 22 22 23
1 2 2 3 4 4 4 5 6 7 9 10 10 9 9 9 7 8 8 9 9 10 10 11 14 20 20 22 23 22 25 25 25 24 24 23 23 25 24 24 22 23 23 22 23

GFSSW_850_temp_015.txt.gz
Temp
12 12 13 13 14 14 14 15 15 15 15 16 16 17 17 17 19 19 21 23 23 22 21 21 21 21 20 20 20 21 16 16 18 19 20 23 22 25 25 26 27 26 27 27 26
12 13 12 12 12 12 13 13 14 14 15 15 15 15 16 16 17 19 23 22 23 22 21 21 21 19 19 19 20 19 15 18 21 20 20 22 22 23 23 24 25 26 27 27 26
8 9 10 12 12 11 11 10 11 13 14 14 14 15 15 15 15 20 22 22 23 23 22 20 20 20 18 19 20 18 19 21 21 22 22 22 22 23 23 23 25 26 27 27 25
7 8 8 8 10 11 12 12 12 12 12 13 13 14 14 13 13 20 21 21 21 22 21 19 19 19 17 17 20 18 20 21 22 22 22 21 23 23 23 24 25 26 26 27 25
4 5 6 7 8 8 9 10 11 11 10 10 10 10 12 11 13 20 19 21 20 21 21 18 18 18 17 18 20 18 20 21 21 22 22 22 22 22 23 25 25 26 26 27 26
4 5 5 5 5 6 7 7 9 10 9 9 7 6 6 4 16 19 20 18 18 18 19 18 19 19 19 19 18 19 20 20 21 21 22 22 22 23 24 24 25 26 26 26 26
5 5 6 6 6 6 6 7 8 7 8 7 6 5 4 8 15 17 18 19 20 18 18 19 19 19 20 18 20 20 18 19 20 22 22 22 21 22 24 25 25 26 25 26 26
6 6 6 6 6 7 7 8 8 8 7 6 6 4 4 10 14 16 16 18 19 18 18 19 19 19 18 19 19 18 18 18 20 21 22 21 20 22 25 25 25 26 26 26 26
5 5 5 6 6 7 7 8 9 8 9 5 3 4 5 12 15 19 18 17 19 18 17 17 18 18 18 17 15 16 17 17 19 20 20 19 20 22 24 24 24 25 26 25 26
4 5 5 5 6 6 7 8 9 8 7 3 3 4 9 13 14 15 16 16 16 17 16 16 17 14 13 14 15 16 15 18 18 20 20 20 19 22 23 23 23 24 25 24 25
4 4 4 4 5 6 6 7 7 7 5 5 5 7 12 12 14 15 16 15 13 16 14 16 14 15 16 17 18 18 18 18 19 20 20 19 19 21 22 23 22 23 25 24 24
3 4 4 4 4 5 5 5 5 3 4 5 7 6 8 9 8 15 15 15 13 14 16 16 15 17 18 18 17 18 17 17 19 20 20 19 19 21 21 21 23 23 25 23 24
3 4 4 5 5 5 5 5 4 4 3 5 8 8 10 11 9 11 15 15 14 14 15 16 18 19 18 18 17 17 17 18 18 20 20 19 19 20 22 22 22 24 24 26 27
3 3 4 4 5 4 5 4 4 4 3 7 9 9 9 11 11 15 15 16 16 14 16 16 19 19 18 17 18 17 19 19 19 18 17 19 16 19 19 20 21 23 25 26 24
3 3 3 3 2 3 5 3 5 4 5 12 12 12 12 11 15 14 14 16 15 16 16 16 18 18 18 19 19 18 20 19 19 17 17 18 17 18 19 20 20 20 24 23 20
3 4 3 4 4 4 3 3 5 5 6 11 12 11 12 11 12 15 15 16 17 16 16 17 20 19 19 20 20 20 19 18 17 16 16 18 17 17 19 20 21 23 20 21 19
4 4 3 2 3 3 2 3 4 4 11 11 10 11 11 10 12 13 14 14 15 14 14 16 18 19 19 18 18 18 15 13 14 14 15 18 17 19 20 19 20 22 19 19 18
4 4 4 3 3 2 2 3 4 8 8 10 9 11 10 10 9 10 13 13 16 16 16 15 15 18 19 19 18 18 17 13 14 14 16 18 18 20 21 21 22 23 22 18 18
4 4 3 3 2 2 3 1 4 6 8 7 8 9 10 9 9 9 9 13 15 17 15 15 16 19 20 20 20 18 17 18 17 17 16 16 18 19 21 19 18 16 17 16 17
3 3 3 3 2 2 2 3 4 7 7 7 6 9 7 8 8 8 9 11 13 15 14 16 16 19 20 20 19 17 18 17 14 15 17 17 18 19 21 20 17 15 14 15 16
2 2 3 3 2 2 3 2 5 6 7 7 6 6 7 8 8 8 9 11 11 10 11 15 15 17 18 18 18 17 18 16 17 16 14 15 17 17 20 18 17 15 16 17 17
1 0 3 2 2 2 2 4 5 6 6 6 6 7 8 8 8 8 8 10 10 10 10 10 13 14 17 19 20 19 19 18 17 15 17 16 18 20 18 18 17 16 18 18 18
0 1 3 2 2 2 2 4 5 5 5 6 6 7 8 7 7 9 9 10 10 10 9 9 10 15 14 17 17 18 18 20 16 14 15 18 19 18 17 17 18 16 18 18 18
0 0 3 2 2 2 2 3 4 6 6 6 6 6 7 7 8 7 8 10 10 10 10 9 8 13 16 18 18 18 19 18 19 18 18 18 20 19 18 17 17 18 18 18 18
1 -0 1 -1 0 0 2 2 4 3 5 6 6 6 7 4 6 8 9 9 11 9 9 7 6 11 14 18 18 19 19 20 19 20 19 20 19 18 17 17 17 18 17 17 17
1 1 1 1 1 1 2 3 3 4 3 4 5 5 6 5 6 5 7 8 8 8 8 6 6 9 13 17 18 18 19 20 20 20 20 19 19 18 19 20 17 18 17 17 17
1 1 1 2 -0 -1 1 3 3 3 5 5 5 5 5 7 7 8 7 8 8 8 7 6 6 8 10 17 17 16 18 19 19 21 21 19 19 17 19 19 18 18 18 18 18

GFSSW_850_temp_021.txt.gz
Temp
9 10 10 10 10 11 12 13 13 14 14 15 15 15 16 16 18 17 18 21 21 20 20 21 20 18 19 19 19 19 22 22 22 22 25 23 25 23 23 24 24 24 24 24 25
7 8 9 9 9 9 11 11 12 12 12 13 14 14 15 15 16 16 20 20 21 19 19 21 21 19 18 18 19 20 21 22 24 24 24 23 23 23 23 24 24 24 23 23 23
6 6 7 8 8 8 8 9 10 11 12 12 12 13 14 14 14 17 19 20 21 21 19 19 19 19 18 18 19 21 21 23 24 23 22 23 23 23 23 24 25 24 23 23 23
6 6 6 7 7 8 8 8 8 8 9 10 10 10 12 12 15 17 16 18 18 21 19 16 17 17 20 20 19 20 20 22 23 22 22 23 22 22 22 23 23 23 22 22 23
6 6 6 6 7 7 7 8 8 8 8 7 8 8 9 8 11 17 16 17 16 17 17 16 17 19 20 20 21 19 21 21 21 21 21 21 21 21 22 23 23 22 22 22 23
5 5 6 6 6 6 7 7 8 8 7 7 7 6 5 4 14 16 16 17 17 16 15 15 17 18 20 20 20 22 20 21 21 21 21 21 22 21 22 23 22 22 23 23 23
5 5 5 5 6 6 7 7 7 7 8 8 8 5 3 5 14 13 14 16 16 16 15 16 17 16 18 19 19 20 20 21 20 20 21 21 21 22 22 23 22 22 23 23 23
4 4 5 5 5 6 7 7 7 7 8 8 6 3 3 10 11 13 14 15 15 15 14 16 16 16 16 17 18 19 19 20 22 21 21 21 21 25 23 22 23 22 22 23 24
4 4 4 4 5 5 6 7 7 8 8 8 5 3 4 9 10 12 11 13 15 14 13 15 15 16 16 17 18 18 20 19 21 21 22 21 23 25 22 21 22 22 22 22 23
2 3 4 4 5 5 6 6 6 5 6 6 4 4 8 10 10 10 10 11 11 12 13 13 15 17 17 18 18 18 17 19 20 22 22 23 22 23 21 22 22 22 22 22 22
3 3 3 4 4 4 5 6 5 4 4 5 6 7 9 10 9 10 10 10 8 12 15 14 16 17 18 18 19 20 20 20 21 22 21 22 22 22 22 23 23 22 22 21 23
4 4 4 4 4 4 4 3 2 2 3 5 7 5 8 9 7 10 10 10 10 13 15 15 16 18 19 18 18 18 19 19 21 21 20 21 21 22 22 22 22 22 22 22 22
4 4 4 4 4 4 4 3 3 3 3 5 5 5 6 7 6 8 10 11 12 13 15 17 19 18 18 18 17 18 18 19 19 21 20 20 20 21 23 22 22 22 22 22 21
3 3 3 3 3 3 3 3 3 3 4 8 7 8 8 7 8 10 9 12 13 13 15 16 19 19 18 17 18 17 19 19 19 18 19 20 20 21 22 22 23 23 22 22 22
3 3 3 3 1 1 2 2 3 3 6 10 9 9 10 10 10 12 10 11 13 14 15 15 17 17 17 18 18 18 20 18 18 19 19 19 19 20 21 21 23 24 23 22 21
3 3 3 3 1 2 2 3 3 5 5 10 10 10 11 11 11 11 11 10 13 14 16 17 17 19 19 19 19 19 20 19 19 19 17 19 19 20 22 22 24 25 24 21 21
3 4 3 3 1 1 2 3 4 4 9 9 8 9 10 10 10 10 10 11 12 12 13 15 17 18 19 19 19 19 19 17 16 16 17 20 19 19 23 23 23 24 25 19 19
4 3 3 3 2 1 2 4 3 7 7 9 8 9 10 9 6 8 9 10 12 13 15 15 14 17 19 19 18 18 18 19 17 18 20 19 18 20 22 23 23 22 22 19 16
4 3 3 2 2 1 2 3 5 6 6 6 7 8 9 9 8 8 7 6 11 13 12 15 16 18 19 20 20 18 18 20 19 18 19 20 19 20 22 22 22 22 19 17 15
4 3 3 2 2 1 2 3 3 6 6 6 5 7 7 8 8 9 6 5 5 8 9 13 14 18 19 20 20 20 20 17 19 18 18 19 19 23 22 23 24 22 19 16 14
4 3 2 1 1 1 3 3 4 5 6 5 6 6 7 7 8 8 7 7 4 6 8 11 13 17 19 19 19 19 19 19 20 19 19 19 21 22 24 24 24 23 19 16 15
2 3 3 2 2 1 3 3 3 5 5 6 6 5 6 6 7 7 7 8 6 5 5 8 11 15 18 20 21 20 20 19 19 17 20 20 21 21 22 22 23 22 17 16 15
-0 0 3 2 2 3 3 4 4 5 5 5 5 6 7 6 6 8 8 9 8 6 5 6 11 15 16 18 20 19 20 19 20 19 19 20 21 21 21 22 21 20 17 15 15
1 1 2 2 1 2 2 4 4 5 5 3 5 6 6 7 8 6 6 9 8 8 6 6 8 11 16 17 17 18 19 19 19 19 19 20 22 24 23 24 21 19 17 16 15
2 1 0 1 2 2 1 3 3 4 5 5 5 5 4 5 6 5 4 5 7 7 8 7 8 10 11 12 13 16 19 19 18 19 19 20 20 23 23 24 22 19 17 16 16
1 1 1 1 1 2 2 3 3 4 4 5 4 5 5 4 5 5 5 5 5 7 7 7 8 9 12 14 14 15 17 19 19 20 20 21 21 23 24 21 20 18 17 17 17
1 0 1 2 2 1 3 2 2 2 4 4 5 4 4 6 5 5 5 6 6 5 6 7 8 9 14 13 15 15 17 18 19 20 20 20 21 22 22 22 21 19 18 19 18

GFSSW_850_temp_024.txt.gz
Temp
9 9 9 9 10 11 11 11 13 13 13 14 15 16 16 16 17 17 17 18 19 19 19 19 18 19 19 21 22 23 25 26 28 28 28 28 29 27 26 27 28 27 27 27 26
8 8 9 9 8 9 9 9 10 10 11 13 13 14 15 15 16 17 19 19 19 19 19 18 19 19 21 22 22 24 26 27 29 29 29 29 27 28 26 27 27 27 27 26 25
7 8 8 8 8 8 8 8 8 9 9 9 11 12 13 13 12 17 18 19 20 21 20 19 20 20 22 23 23 24 25 28 28 28 27 28 27 27 27 27 27 27 27 26 26
6 6 7 7 8 8 8 8 7 7 8 8 8 9 11 12 18 17 17 17 18 20 20 18 19 21 23 25 24 24 25 26 26 27 27 27 26 26 26 26 26 26 26 26 26
5 6 6 6 6 7 7 8 8 8 7 7 8 8 8 9 13 15 15 16 16 17 17 19 20 21 24 25 25 25 26 25 25 25 25 25 25 26 26 26 25 25 25 25 26
4 4 5 5 6 7 7 7 7 7 7 8 7 7 5 8 12 13 15 16 16 15 16 18 20 21 23 24 25 25 26 25 25 25 25 26 26 26 26 25 25 25 26 26 26
4 3 4 5 5 6 6 6 7 7 8 8 8 4 4 8 13 11 13 14 13 14 16 17 19 20 21 23 23 24 25 26 25 25 26 25 25 26 26 25 25 26 26 26 26
4 3 4 5 5 5 6 6 7 8 8 9 8 4 6 11 9 12 13 13 12 13 13 16 17 18 20 21 22 23 24 24 26 25 25 24 24 28 27 27 27 26 26 26 25
3 3 4 4 5 5 6 7 7 8 8 8 5 4 10 9 9 11 10 11 13 13 12 15 16 18 20 20 21 23 23 24 25 27 26 25 25 27 27 27 26 25 25 25 26
4 4 4 4 5 5 6 7 7 6 5 5 5 6 9 11 11 10 11 10 11 13 13 14 17 20 20 22 22 22 23 24 24 27 25 25 25 27 27 27 26 26 26 26 26
4 4 4 5 5 5 5 6 8 8 6 9 11 9 11 12 11 11 11 11 11 13 16 16 18 19 21 21 23 24 24 24 26 26 26 25 25 27 28 26 25 26 26 26 25
4 4 4 5 5 5 4 5 4 3 5 7 8 8 9 9 9 10 11 12 13 14 17 19 18 22 22 23 22 22 23 24 25 26 25 24 24 26 27 27 25 26 26 26 26
4 4 4 5 4 4 3 4 3 3 6 8 9 9 10 9 10 10 11 12 15 15 17 19 20 21 22 22 22 22 22 22 23 25 24 23 23 24 25 26 26 26 25 25 26
4 4 4 4 4 3 4 3 3 3 6 12 11 11 10 10 11 11 11 13 15 15 17 18 21 22 21 22 23 22 23 22 22 22 21 24 23 24 25 26 26 26 26 26 26
4 4 4 3 2 3 4 3 3 4 8 13 12 11 12 12 13 13 12 12 14 16 17 18 19 20 21 22 23 22 23 22 22 22 22 22 22 23 25 25 25 26 26 26 26
3 3 4 3 2 2 3 2 3 5 8 12 13 12 13 13 13 12 13 12 13 15 17 18 20 20 22 23 23 23 22 22 22 22 20 22 22 22 24 25 26 27 27 27 24
4 4 3 3 3 2 2 4 6 7 12 11 10 12 12 13 12 12 12 13 13 13 14 17 18 20 21 21 23 22 21 20 20 20 20 23 22 23 25 26 26 27 27 24 21
5 4 3 2 1 2 3 5 6 10 10 11 10 11 11 13 12 11 11 10 13 15 16 15 16 18 21 21 21 21 22 23 20 21 23 24 22 24 25 26 26 26 26 24 22
5 3 4 2 2 2 4 6 8 8 9 8 9 10 11 12 12 12 11 8 7 13 14 17 17 21 21 22 23 21 22 24 24 23 23 25 24 25 25 26 26 26 26 25 22
3 3 3 2 2 2 3 6 7 8 8 8 7 9 9 11 11 12 11 7 6 8 11 14 15 20 20 22 23 23 23 22 23 21 21 24 24 24 26 26 27 27 27 24 21
2 6 3 2 2 3 4 6 8 8 7 7 8 8 9 10 10 11 10 7 5 6 10 13 14 18 21 20 22 23 22 23 24 24 22 23 24 25 26 27 27 28 27 22 20
3 7 3 2 4 5 5 7 6 8 8 7 8 7 7 8 9 10 10 11 6 7 6 13 14 15 19 22 23 23 23 22 22 21 23 24 24 26 26 27 28 27 24 22 21
4 4 3 3 4 5 6 7 8 7 8 7 6 8 9 8 8 9 9 8 7 7 6 9 13 15 17 21 22 22 23 23 23 24 22 23 24 26 26 26 26 25 23 21 21
4 5 5 4 4 4 5 7 7 7 8 7 7 8 8 9 10 9 7 6 7 7 6 6 10 15 18 20 21 21 22 23 22 22 23 23 25 26 26 26 26 24 22 21 21
3 5 3 5 5 4 5 5 5 6 7 8 8 8 7 7 8 6 6 7 7 6 6 6 12 15 15 16 16 19 22 22 22 22 23 24 23 26 27 26 26 24 22 22 21
2 2 3 3 4 5 5 6 6 6 6 6 8 8 8 8 8 8 8 6 4 5 5 7 10 14 15 16 17 18 21 22 22 22 23 23 23 25 26 26 26 24 23 23 22
1 1 1 4 4 4 5 5 4 3 5 7 6 6 7 8 8 8 8 8 7 7 7 8 8 13 14 18 17 17 20 21 22 23 23 22 24 25 25 25 26 24 23 23 23

GFSSW_850_temp_027.txt.gz
Temp
8 8 8 8 9 9 10 10 10 11 11 12 13 15 16 16 17 16 15 18 19 20 20 19 19 20 21 22 23 25 27 27 29 30 31 32 32 31 30 30 30 30 30 29 29
8 8 8 8 8 9 9 9 9 9 10 11 12 12 14 15 16 15 19 17 19 19 20 20 20 21 22 23 24 26 26 28 30 31 31 32 32 31 30 30 29 29 30 29 29
8 8 8 8 8 8 8 8 9 9 9 9 9 10 12 13 14 19 19 18 18 19 19 20 22 22 23 24 25 26 26 29 30 30 30 31 31 30 31 30 30 30 29 29 28
7 7 7 8 8 8 8 8 8 8 8 9 9 10 10 12 19 17 18 18 17 17 17 17 20 23 25 25 25 27 27 28 29 29 29 30 30 30 30 29 29 29 28 28 28
6 6 6 7 7 7 8 8 8 8 8 8 9 9 9 11 14 16 16 15 16 17 16 18 20 22 25 26 26 27 28 28 28 28 28 28 29 29 29 29 28 28 28 27 27
5 5 5 6 6 6 7 7 8 8 8 8 8 8 6 11 14 15 15 15 15 17 19 19 21 23 25 26 27 27 28 28 28 28 28 28 29 29 28 28 28 28 28 27 28
4 4 4 5 5 6 6 7 7 8 8 8 8 6 6 10 12 13 13 14 15 16 18 20 21 23 24 26 26 27 27 28 29 28 29 28 28 28 28 28 28 28 28 28 28
4 4 5 5 5 6 6 7 7 8 8 8 8 5 7 11 12 13 13 14 14 14 15 18 20 21 23 24 25 26 27 25 27 28 28 28 26 29 28 29 29 29 29 29 28
3 4 4 5 5 6 6 7 8 8 8 7 6 6 10 12 11 12 12 13 15 15 15 16 17 20 22 23 24 25 24 25 26 28 28 28 27 29 28 28 29 28 29 28 28
4 4 5 5 5 6 7 8 8 7 7 6 8 9 11 13 14 13 13 13 14 15 16 16 17 20 22 23 23 23 24 25 25 28 28 28 28 29 29 28 28 28 28 28 27
4 4 4 5 5 6 7 8 10 10 9 11 13 11 13 14 14 14 13 14 14 15 17 18 18 20 22 23 25 25 26 26 27 29 28 27 28 29 29 28 28 29 29 28 27
5 5 5 5 5 6 6 8 8 7 8 9 10 11 12 12 13 13 13 14 15 16 17 19 18 22 23 24 24 24 24 25 27 28 28 28 28 29 29 28 28 28 28 28 27
4 4 5 5 5 6 7 8 7 7 8 10 12 13 13 13 13 13 14 14 16 17 18 18 21 21 22 23 23 24 24 24 25 27 28 27 26 27 28 28 27 27 27 27 27
4 5 5 5 6 6 8 6 7 7 9 14 14 13 13 13 14 13 14 14 16 16 18 19 21 22 22 22 24 23 25 25 25 25 24 27 25 26 27 28 28 28 27 28 27
5 5 5 4 3 6 7 6 6 6 9 15 14 13 14 14 15 15 14 14 15 16 17 18 20 20 21 22 24 24 26 25 25 24 24 25 25 25 27 27 27 28 28 27 27
5 6 5 6 4 5 6 6 6 7 9 14 14 10 15 15 15 15 15 14 15 16 17 19 20 22 21 23 25 25 25 25 25 25 23 24 24 25 26 27 28 29 28 28 28
5 5 4 4 6 5 5 6 6 8 13 12 11 13 12 14 15 15 15 14 15 14 14 17 18 21 22 22 24 25 24 22 22 23 23 25 25 26 27 28 28 28 28 28 28
5 5 5 4 4 4 5 5 7 11 11 13 13 13 12 14 14 13 14 14 16 15 13 16 16 19 21 22 22 23 24 23 21 23 24 26 24 26 29 29 28 28 28 28 26
5 6 6 5 4 4 4 6 7 10 11 10 11 10 12 14 14 14 14 15 14 12 9 15 17 20 21 22 23 23 24 25 25 27 26 28 28 28 28 28 28 28 28 26 25
4 7 7 5 4 5 6 7 9 11 11 11 9 9 9 12 11 12 13 11 12 11 8 12 12 20 21 22 22 23 25 23 25 22 24 26 27 27 28 29 29 28 28 27 24
5 8 6 5 5 5 6 8 11 10 10 8 9 9 10 11 12 12 12 13 11 11 11 12 9 15 21 21 21 22 24 24 25 26 25 25 27 29 28 28 29 29 28 27 24
7 10 7 6 5 7 7 10 10 11 11 10 9 9 10 10 9 11 13 12 10 11 11 14 12 12 17 22 23 24 24 24 25 23 26 27 26 29 28 29 29 30 28 26 24
8 9 7 6 6 6 8 10 11 11 11 10 9 10 10 9 7 11 11 6 8 8 9 10 12 13 13 18 23 23 24 25 24 26 25 26 26 28 28 29 30 29 28 25 24
7 7 9 8 7 6 7 8 9 10 11 10 11 11 6 9 11 9 9 9 6 6 8 6 10 14 12 17 22 22 24 25 24 24 25 26 27 27 27 28 28 27 25 25 24
7 8 6 7 7 6 7 7 8 8 9 9 10 10 10 9 10 8 8 10 9 7 6 6 9 14 14 12 16 23 24 25 25 25 26 26 27 28 28 28 28 26 25 25 24
4 5 6 6 6 7 7 7 8 8 8 8 8 10 10 9 10 9 9 9 6 6 6 6 9 13 14 11 15 20 24 24 25 25 26 27 26 29 29 28 27 26 25 25 25
3 2 2 5 7 7 8 7 7 7 8 8 8 8 8 9 8 9 9 10 10 9 9 7 9 14 12 11 13 19 22 24 25 25 25 25 25 27 27 27 27 27 26 25 25

GFSSW_850_temp_030.txt.gz
Temp
8 8 8 8 8 9 9 9 9 9 10 10 12 13 15 15 16 16 17 20 19 19 20 20 21 20 21 22 23 24 24 25 27 28 30 31 32 32 32 31 31 31 31 30 30
8 7 7 7 8 8 8 9 9 9 9 10 10 11 13 14 15 16 20 19 19 19 20 19 21 21 22 22 23 24 24 25 28 29 30 31 32 31 31 31 30 30 30 30 30
7 7 7 7 7 7 7 8 9 9 9 9 9 10 10 12 13 18 19 19 19 19 20 20 21 23 23 23 24 25 25 26 28 29 30 30 30 30 31 31 30 29 30 30 30
7 7 7 7 7 7 7 7 8 8 9 9 9 10 10 10 18 17 18 18 18 17 17 18 19 22 24 24 25 25 26 27 27 28 29 30 30 30 30 30 30 30 30 30 29
6 7 7 7 7 7 8 8 8 8 8 8 9 9 10 11 13 16 16 17 17 16 16 17 18 20 23 24 25 26 26 27 28 28 28 29 30 30 30 30 30 30 29 29 29
5 5 6 6 7 7 7 8 8 8 8 7 8 8 6 9 13 16 17 16 17 17 18 18 19 20 22 24 25 26 27 27 28 28 29 30 30 29 29 29 29 29 29 29 29
5 5 6 6 6 7 7 8 8 8 8 8 7 6 5 8 12 13 14 15 16 17 18 20 21 21 22 23 24 26 26 28 29 29 29 29 29 29 29 29 29 29 29 29 29
5 5 6 6 7 7 7 8 8 9 9 9 8 6 7 11 12 13 13 14 15 16 17 18 19 20 22 23 24 25 26 25 27 28 29 28 26 29 29 29 29 29 29 29 29
5 5 5 6 6 6 7 8 9 9 8 8 7 6 10 13 12 12 13 14 16 16 17 17 18 19 21 22 23 24 24 24 26 28 28 28 27 29 29 29 29 29 29 29 29
5 5 5 6 6 7 8 9 11 8 7 7 7 9 11 13 14 15 15 15 15 15 16 17 18 18 20 22 21 22 23 24 25 27 28 27 28 29 29 29 29 29 29 29 28
5 6 6 6 6 7 8 8 11 11 9 11 13 12 13 14 15 15 15 15 15 16 16 18 18 18 19 21 23 24 24 24 26 28 27 27 27 28 29 29 30 29 29 28 28
6 6 6 6 7 7 7 8 10 9 10 10 11 11 12 13 14 14 15 15 16 16 17 18 18 20 21 22 22 23 23 24 26 28 27 27 28 29 29 29 30 29 29 28 28
6 6 7 7 7 7 7 9 9 9 10 10 11 12 13 14 14 15 15 15 16 16 17 17 19 20 21 21 22 23 23 24 24 26 27 27 26 27 29 29 29 29 29 28 28
6 7 7 7 7 7 9 9 9 9 9 14 15 15 14 15 16 15 15 15 16 15 17 18 19 20 21 20 22 22 24 24 24 24 24 26 24 26 28 28 29 29 28 28 28
6 7 7 6 7 8 8 8 8 8 8 16 14 14 14 15 16 16 15 16 15 16 16 16 18 19 19 21 22 23 24 24 25 24 24 25 24 25 27 27 28 29 29 29 28
6 6 6 7 7 7 8 8 7 6 7 11 12 12 13 13 13 13 16 16 16 16 17 17 18 19 20 22 22 24 23 23 24 25 23 25 24 25 26 27 28 29 29 29 28
6 6 6 6 7 6 7 8 6 6 10 11 13 14 14 14 14 14 15 15 14 12 15 17 17 19 20 20 22 22 22 21 21 22 22 25 25 25 27 28 29 29 29 29 28
7 6 6 7 7 6 7 7 6 6 11 14 13 14 13 14 15 16 14 14 16 15 14 12 13 18 19 19 20 21 22 22 19 21 23 25 24 26 28 29 29 29 29 28 28
7 7 7 8 7 6 7 7 5 9 12 12 13 10 10 11 11 14 14 14 16 15 12 12 13 18 18 20 21 21 21 23 23 24 24 26 27 27 28 29 29 29 29 28 25
7 6 9 7 6 6 7 8 10 13 13 13 10 10 9 11 11 11 11 12 13 14 13 12 11 15 17 20 20 21 23 21 23 21 22 25 26 28 28 28 29 29 28 26 24
8 10 9 7 7 8 6 9 12 12 12 12 11 10 9 10 11 10 11 11 13 14 14 13 12 13 15 18 19 21 21 23 24 24 23 23 26 30 28 29 29 28 28 26 24
7 11 9 8 8 7 8 10 11 12 13 13 12 11 10 9 10 11 12 11 12 13 11 13 10 12 14 18 20 22 21 22 22 22 24 25 26 29 29 29 30 29 28 26 24
8 11 9 8 7 8 9 10 11 12 12 11 12 12 11 10 6 5 7 8 10 10 10 9 11 11 13 16 18 17 22 23 23 24 23 24 26 29 29 29 30 29 28 25 24
7 9 10 9 10 8 9 9 9 10 11 11 11 12 10 8 11 10 6 8 10 9 9 8 8 10 11 14 11 14 19 23 23 23 24 26 26 27 28 29 29 28 26 25 25
8 9 9 8 8 9 9 9 9 10 10 10 10 11 10 9 11 10 10 10 10 8 9 6 6 9 11 12 9 10 14 21 23 24 23 25 27 28 28 28 27 27 26 25 24
7 7 7 6 9 10 8 9 8 10 9 9 8 9 10 9 9 9 10 11 10 10 6 6 7 9 10 13 10 8 13 18 24 25 25 25 27 28 27 27 26 26 26 25 24
4 4 5 5 9 9 8 7 8 8 9 9 9 7 9 9 9 9 9 10 11 11 10 9 7 8 11 13 10 11 16 18 24 26 26 25 26 27 26 28 27 26 26 25 25

GFSSW_850_temp_033.txt.gz
Temp
7 8 8 8 8 8 9 9 9 10 10 11 11 12 13 15 16 16 16 20 19 20 20 20 20 21 20 20 21 22 19 19 21 23 25 28 28 31 31 30 30 30 30 30 29
7 7 7 7 7 8 8 8 8 9 9 10 11 11 12 12 15 16 20 19 19 19 20 20 20 20 20 21 21 21 19 20 23 24 25 27 28 29 30 30 30 30 30 30 29
7 7 7 7 7 7 7 8 8 8 8 9 9 10 11 11 13 17 18 18 20 19 19 19 19 20 20 21 22 22 20 22 23 25 26 27 27 28 28 28 29 29 29 28 30
6 7 7 7 7 7 7 7 7 8 8 8 8 9 9 9 12 16 17 17 18 19 17 18 18 19 19 19 22 20 22 23 24 24 25 26 27 27 28 28 29 29 29 29 29
6 6 7 7 7 7 8 7 7 7 7 8 8 8 8 7 9 16 15 16 17 17 16 17 17 18 16 20 22 21 22 24 25 25 25 26 26 27 27 28 29 29 29 29 29
6 6 7 7 7 8 8 8 9 8 7 7 8 7 5 4 12 14 14 14 15 16 16 16 16 17 18 19 19 22 23 24 25 25 25 26 26 27 28 28 29 29 29 29 29
6 6 7 7 7 8 8 9 9 9 9 8 7 6 3 7 13 14 14 14 15 16 17 17 18 18 19 18 20 21 21 23 24 25 25 26 25 26 28 28 28 28 29 29 29
6 6 6 7 7 8 8 9 10 10 9 9 7 5 4 13 12 11 14 14 15 15 16 16 17 18 18 20 20 20 20 19 22 24 25 25 23 25 27 27 27 28 28 28 29
6 6 6 7 7 7 8 9 11 10 9 8 7 6 6 12 12 14 13 13 14 15 15 16 16 17 17 16 16 18 18 19 21 24 24 24 23 26 27 27 27 27 27 27 28
6 6 6 7 7 8 8 9 10 11 9 8 7 7 9 13 14 14 15 14 14 15 15 16 17 15 15 15 15 17 18 20 20 22 24 23 24 25 26 26 27 27 27 27 28
6 6 7 8 8 8 8 9 9 10 8 10 10 9 12 13 14 15 15 15 15 15 13 15 14 14 15 16 17 20 20 20 21 23 23 23 23 25 26 26 25 27 27 27 28
7 7 8 8 9 8 8 8 9 9 9 9 9 10 11 11 12 12 14 14 15 13 14 13 13 15 17 17 17 18 18 19 21 23 23 23 23 25 26 26 27 27 27 28 28
7 8 8 8 8 8 8 9 9 9 7 9 11 11 11 11 12 12 13 14 14 13 14 13 15 17 17 17 17 17 18 18 19 21 22 22 21 22 24 25 27 27 28 28 28
7 8 7 8 8 8 8 8 8 8 5 10 12 13 13 12 12 13 14 15 14 13 14 13 16 17 17 17 18 17 20 20 20 20 19 22 19 22 23 24 25 26 27 28 29
7 7 7 6 7 7 7 8 8 8 5 11 12 13 14 13 13 14 14 15 14 14 14 13 14 15 16 17 19 17 20 20 20 19 19 20 18 22 21 22 22 23 26 27 28
7 7 7 7 7 8 7 7 7 6 6 8 13 14 14 14 15 14 13 14 15 14 14 14 16 16 16 18 19 20 19 19 19 18 17 20 20 21 21 23 23 23 26 28 28
8 8 7 7 7 7 7 7 6 5 9 10 12 13 12 11 12 13 12 12 9 9 12 14 15 16 17 16 17 17 17 15 15 16 16 20 19 21 21 22 23 24 25 27 28
8 8 8 7 7 7 7 6 5 8 9 13 13 12 11 12 11 11 12 12 11 11 10 11 11 14 17 16 15 15 16 15 14 15 17 20 20 20 23 25 25 27 27 27 25
8 8 8 7 7 7 7 5 4 8 11 11 12 11 10 11 10 8 10 11 11 12 9 10 12 15 15 15 16 15 15 18 17 18 17 19 21 23 24 24 24 24 25 22 22
8 8 9 8 8 7 5 6 9 11 11 10 10 11 9 9 9 7 8 12 11 13 11 12 9 13 14 15 15 15 17 15 17 15 15 19 20 20 23 24 24 22 20 21 21
7 7 8 9 8 7 3 7 9 11 11 11 10 10 10 8 8 9 9 10 10 11 8 9 10 11 13 13 13 14 15 15 15 17 16 16 19 22 23 24 23 21 22 21 21
6 7 9 9 8 7 5 8 10 11 11 10 9 10 10 9 8 9 7 8 6 8 9 10 8 8 10 13 15 14 14 16 15 15 18 17 19 26 25 23 22 22 22 22 22
4 7 10 9 5 5 8 10 10 10 9 8 10 10 9 8 6 7 6 8 8 8 8 8 7 6 9 13 14 13 15 16 16 16 17 17 19 23 24 26 24 22 22 22 21
4 5 9 9 9 7 7 8 8 9 10 10 9 9 8 8 9 8 6 8 7 8 9 8 7 7 7 9 9 9 10 12 12 15 17 19 21 23 24 24 22 23 22 22 21
6 6 7 4 5 6 7 5 5 8 9 9 8 8 7 6 7 7 8 9 11 10 8 7 6 7 8 9 11 9 10 11 10 11 16 20 21 22 23 23 22 23 22 22 21
5 5 5 5 6 6 7 5 5 6 7 7 7 8 8 6 7 7 7 7 7 8 7 6 7 7 8 10 11 10 11 12 11 12 13 18 21 23 21 24 23 23 23 22 21
3 4 4 5 6 5 6 7 5 5 7 8 8 7 6 6 8 8 8 9 8 7 7 6 6 7 8 11 10 9 11 12 12 14 14 16 22 21 19 20 19 22 23 22 22

GFSSW_850_temp_036.txt.gz
Temp
7 8 8 8 9 8 8 9 9 10 10 11 11 11 11 12 13 15 16 20 19 19 19 19 19 20 19 18 19 20 16 16 18 21 23 25 25 28 27 29 30 30 29 29 29
7 7 7 8 8 8 8 8 8 9 9 10 10 11 11 11 12 14 19 19 19 19 19 19 19 19 18 19 19 18 17 18 20 22 22 23 24 25 26 27 28 29 29 29 28
6 6 7 7 7 7 8 8 8 8 8 9 9 10 10 9 11 16 16 17 18 19 18 18 19 18 18 19 20 19 19 20 21 22 23 23 24 24 25 25 28 28 28 29 29
7 7 7 7 7 7 7 7 8 8 8 8 8 8 9 8 10 15 16 16 16 17 17 17 17 17 16 17 20 18 21 21 21 22 23 23 24 24 25 25 26 27 28 28 29
6 7 7 7 7 8 8 8 8 8 8 8 8 7 7 6 8 16 16 15 14 15 16 16 16 17 15 17 19 18 19 21 21 22 22 23 23 23 24 25 26 27 28 28 29
7 7 7 7 8 8 8 8 8 8 8 8 7 6 4 3 13 14 14 14 14 14 16 15 16 17 17 16 17 19 19 20 21 22 22 22 23 24 24 25 26 26 27 28 28
7 7 7 7 8 8 9 9 9 9 9 9 8 5 3 6 12 12 13 13 14 13 14 15 16 17 17 16 18 18 17 19 20 21 21 23 22 23 25 25 26 26 27 28 28
7 7 7 7 8 8 9 9 10 10 10 9 8 5 4 12 11 12 12 13 13 13 13 15 15 15 16 17 18 18 17 16 19 20 22 22 21 24 25 26 25 26 27 27 27
7 7 7 7 8 8 9 9 10 10 10 9 8 6 6 11 12 14 13 13 14 14 14 14 15 15 16 15 14 15 16 16 18 21 21 21 21 23 25 25 25 25 26 26 27
7 7 8 8 8 8 8 8 9 9 9 8 7 6 9 12 12 11 13 14 14 15 15 15 15 13 11 12 14 14 16 17 17 20 21 21 21 22 24 24 24 25 25 25 26
7 7 9 9 8 8 8 8 8 9 8 8 8 8 9 11 11 12 12 12 13 13 11 14 11 12 14 14 15 16 16 17 19 20 20 20 20 21 23 23 23 24 24 25 25
7 7 9 9 8 8 8 7 8 8 8 8 9 9 10 10 9 11 11 12 12 11 12 12 11 13 15 15 15 15 14 15 17 18 19 19 20 21 23 23 24 24 24 24 26
7 8 8 8 8 8 8 8 8 8 7 8 10 11 12 11 10 10 11 11 11 11 11 11 13 15 14 14 14 15 14 15 16 18 19 18 18 19 21 22 23 24 25 26 26
7 8 7 8 8 7 7 7 7 7 4 8 11 12 12 12 11 12 12 12 12 11 11 11 13 14 14 14 15 13 16 17 16 16 15 19 17 18 21 21 22 23 24 26 27
8 7 7 7 7 7 7 7 7 7 6 11 11 13 13 12 13 14 13 13 11 12 12 12 12 13 13 14 15 14 17 16 17 16 15 17 15 19 19 20 21 22 24 27 27
8 8 8 7 7 7 7 7 7 4 4 8 11 12 12 12 13 12 13 12 11 12 13 13 14 13 13 15 15 16 15 16 16 14 14 16 15 18 19 20 20 20 24 25 27
9 8 8 7 7 7 7 7 4 3 9 9 10 10 11 11 11 11 11 9 8 8 9 12 12 14 15 13 14 14 13 11 11 12 14 17 16 18 18 20 20 21 22 25 26
9 9 8 8 7 7 7 4 4 6 8 9 8 9 10 10 10 9 10 10 11 9 8 9 9 13 15 13 13 12 11 10 11 11 14 17 15 17 20 22 24 24 24 25 25
9 9 9 8 8 7 7 3 2 8 7 8 6 9 9 10 9 8 9 8 11 7 7 10 11 13 14 14 14 12 12 13 12 14 13 15 18 20 22 22 22 22 23 23 24
9 9 9 9 8 8 3 5 7 9 10 9 5 8 7 8 8 8 8 10 8 9 8 10 8 12 13 14 14 13 13 12 10 12 13 14 15 17 19 21 20 19 18 20 18
8 8 9 8 8 7 1 4 8 9 9 8 7 8 8 8 8 8 9 9 8 8 8 8 8 9 11 12 12 11 11 12 11 12 14 13 15 17 20 19 20 20 18 18 17
7 4 9 8 6 3 2 7 9 9 9 8 8 8 7 7 7 7 7 7 8 7 7 8 6 6 9 11 13 12 11 11 10 12 12 15 16 20 18 21 21 19 18 18 19
5 6 9 8 5 1 4 7 7 7 8 8 8 8 7 7 6 7 6 8 8 7 7 7 5 5 6 9 11 11 11 11 10 11 13 13 16 20 19 20 21 18 18 17 17
5 2 7 7 5 4 3 5 6 7 8 8 7 8 6 6 7 6 7 8 8 8 9 7 5 6 5 9 9 8 10 10 10 8 13 15 16 18 20 20 20 19 18 17 17
5 3 5 1 3 3 4 5 5 5 6 7 7 7 6 5 5 5 7 7 8 8 8 5 5 6 6 7 8 9 10 10 10 10 9 13 12 15 16 20 20 20 18 18 17
4 3 3 3 4 3 4 5 5 5 5 6 5 6 6 5 5 4 5 6 5 7 5 4 5 7 7 8 8 9 11 11 11 12 11 11 12 16 17 19 19 19 19 18 17
2 2 2 4 3 3 3 4 4 6 6 7 6 5 5 6 7 6 6 7 6 6 5 5 5 6 7 8 8 8 10 11 12 13 12 11 14 15 16 17 14 17 19 19 18

GFSSW_850_temp_042.txt.gz
Temp
7 7 7 7 8 8 8 9 9 8 9 9 9 9 10 10 11 13 15 17 16 17 17 17 17 17 17 17 18 18 14 13 17 18 21 22 21 24 24 25 25 27 27 27 28
7 7 7 7 7 7 8 8 9 9 9 9 9 9 10 9 10 13 15 16 16 16 16 16 17 17 16 17 17 16 13 15 18 20 20 22 21 22 23 23 24 25 27 27 26
7 7 7 7 7 8 8 8 8 9 9 9 8 8 9 9 11 12 12 12 12 12 14 15 16 16 16 16 17 16 16 18 19 21 22 21 21 22 22 21 24 24 25 26 26
7 7 7 7 8 8 8 8 8 8 8 8 9 9 9 8 10 13 13 13 13 13 13 14 14 14 13 14 17 15 17 19 20 20 20 20 21 21 21 22 23 23 24 24 25
7 7 7 8 8 9 9 9 9 8 8 8 8 7 8 8 12 12 12 12 13 13 13 13 13 14 12 14 16 16 16 18 19 19 20 20 19 19 20 22 23 23 23 23 24
7 7 8 8 9 9 9 9 8 9 9 9 9 7 5 2 11 10 11 12 12 11 12 12 13 14 15 14 16 16 17 17 18 18 19 19 19 19 21 22 22 22 22 23 24
8 8 8 9 9 9 9 9 9 10 9 9 9 8 8 11 11 10 10 10 11 11 11 12 13 12 14 15 16 16 15 15 16 17 17 19 19 19 21 21 21 21 22 22 23
8 8 8 8 8 8 8 8 8 8 9 9 9 8 8 11 11 11 11 11 11 10 11 12 12 12 13 15 15 15 14 15 17 16 18 19 18 21 22 22 21 22 22 23 24
8 8 8 8 8 8 9 8 8 8 8 8 7 6 10 11 12 12 12 12 12 11 11 12 12 12 13 12 11 12 15 13 15 17 17 18 18 20 23 22 21 22 22 23 23
8 9 9 8 8 8 8 9 9 9 8 7 7 5 11 12 12 12 11 11 12 11 10 10 12 10 9 10 12 12 12 14 14 16 17 16 18 19 20 21 20 21 22 22 22
8 9 9 9 9 8 8 8 7 8 7 7 8 8 9 12 11 12 12 10 11 11 9 11 9 9 11 12 13 13 13 13 15 16 17 16 17 18 18 19 19 19 20 21 21
8 9 9 9 9 8 7 6 5 5 5 10 10 8 11 10 9 12 11 10 11 9 10 9 8 11 12 12 12 11 12 11 13 14 15 14 14 15 15 16 18 19 19 20 21
8 9 10 9 9 8 7 6 6 6 5 8 10 10 11 11 11 11 11 10 10 9 8 8 9 12 12 12 12 11 11 12 12 14 14 14 14 15 16 16 18 19 19 20 21
8 9 9 9 9 8 7 6 6 7 3 7 10 11 11 10 10 11 11 11 10 9 10 8 9 11 11 11 11 10 12 13 13 12 11 15 13 15 16 16 17 17 19 20 20
9 9 9 9 9 8 7 6 7 7 4 9 9 10 9 9 10 11 11 10 9 9 10 9 10 11 10 11 12 11 12 12 12 11 12 13 11 16 15 15 16 17 19 19 20
9 10 10 9 9 8 7 7 7 4 3 7 9 8 8 8 10 11 10 11 10 9 8 9 11 11 10 12 12 13 11 11 11 9 9 11 12 14 15 16 17 17 18 20 20
10 10 10 9 8 8 7 7 4 3 7 7 7 8 7 7 9 9 8 8 8 7 8 9 9 10 11 11 12 12 9 7 8 7 10 12 11 14 15 16 16 17 17 20 21
9 10 9 9 8 8 7 4 4 4 6 8 8 8 6 8 8 8 7 5 7 7 7 6 8 9 11 10 9 9 8 7 9 8 10 13 12 14 15 17 17 18 19 20 21
10 9 9 9 8 8 7 2 2 5 7 7 7 6 6 8 7 6 6 6 7 6 6 6 8 10 12 12 11 10 8 10 10 10 9 10 13 14 16 17 17 17 18 20 21
9 9 8 8 8 7 3 5 5 6 7 7 5 6 5 5 5 5 6 8 7 8 7 7 6 8 11 12 11 10 10 9 7 10 9 10 11 13 15 15 16 16 15 18 20
9 8 7 7 7 7 1 3 5 7 7 6 6 6 6 5 5 5 6 8 8 7 6 6 7 9 10 10 9 10 9 10 8 7 10 10 11 11 14 14 14 13 16 17 18
7 4 7 8 5 0 0 4 6 6 6 6 6 6 6 5 5 5 6 8 8 7 6 6 5 6 8 9 9 9 9 9 9 9 9 8 9 13 14 13 12 14 16 16 17
4 5 7 7 -1 -1 1 4 5 6 5 5 5 6 6 4 4 5 6 8 8 7 6 6 5 6 7 8 8 8 8 8 7 7 7 9 11 14 13 14 13 14 15 16 14
4 1 5 5 3 2 2 4 5 5 5 6 5 6 5 4 6 4 5 7 7 7 8 7 5 5 5 7 7 6 8 8 7 6 9 10 11 13 14 12 13 14 15 15 14
4 0 2 -1 0 1 2 3 5 5 5 5 4 5 5 4 5 5 5 6 6 7 6 6 5 4 5 6 6 6 6 7 7 8 7 10 10 10 11 11 13 13 14 15 13
3 2 2 1 1 1 2 4 5 5 4 5 4 5 5 4 4 4 4 4 4 5 6 4 4 6 5 6 6 6 7 7 7 8 8 8 9 10 12 12 13 14 14 15 14
2 1 0 1 -0 0 0 4 4 3 5 4 5 4 4 5 5 5 4 4 4 5 5 5 4 3 5 7 6 5 7 8 8 8 9 7 9 11 12 11 12 13 15 15 14

GFSSW_850_temp_045.txt.gz
Temp
7 7 8 8 8 8 9 9 9 9 9 9 9 10 11 11 12 13 14 14 15 15 16 16 16 16 16 16 17 18 20 21 21 21 23 23 24 24 24 25 25 26 26 25 26
7 7 8 8 8 9 9 9 9 9 9 9 9 10 10 10 12 14 13 13 13 12 15 16 16 15 15 16 17 19 20 21 22 23 22 24 23 24 24 24 25 25 25 26 26
7 7 7 7 8 8 9 9 9 9 9 9 10 10 10 11 11 12 12 12 12 12 13 14 15 14 16 16 17 19 19 21 21 21 22 23 24 23 24 24 25 25 25 25 26
7 7 8 8 8 8 9 9 8 9 9 9 9 10 10 11 13 12 12 12 11 11 12 13 13 15 16 17 17 19 19 20 21 20 21 22 22 23 23 23 23 22 23 23 23
8 8 8 9 9 9 9 8 8 9 9 9 9 9 10 10 11 11 11 11 11 11 11 11 12 14 17 17 18 18 20 19 20 20 20 20 21 22 22 22 22 22 21 22 22
8 8 9 9 9 9 8 8 8 9 9 9 9 9 7 9 11 11 11 11 11 11 11 11 12 13 14 16 17 19 19 19 19 19 19 20 21 21 21 21 21 21 22 22 22
9 9 9 9 9 9 9 8 8 8 9 9 9 8 6 11 11 11 12 12 12 11 11 11 12 11 13 15 16 17 18 19 19 19 19 19 20 22 21 21 21 21 21 22 22
9 9 10 10 10 9 9 9 9 9 9 8 9 8 9 11 12 11 11 11 12 12 11 12 11 10 12 14 16 17 17 17 20 18 19 19 20 23 23 22 22 22 23 23 23
9 9 9 10 10 9 9 9 9 10 9 9 8 8 10 11 11 11 11 11 11 11 12 11 10 11 13 13 15 16 17 17 19 20 19 19 20 23 22 22 23 22 22 22 22
9 9 9 9 10 9 9 10 9 9 9 8 8 7 11 11 11 11 11 11 10 11 11 11 11 13 13 14 14 16 16 18 18 20 19 19 20 22 22 21 22 22 22 22 22
8 9 9 9 9 9 9 9 9 8 9 8 8 8 10 10 11 11 11 10 9 10 12 11 12 12 14 14 15 15 16 16 18 19 19 19 20 21 21 20 21 21 21 21 21
9 9 9 9 9 8 8 7 5 6 6 10 10 9 10 9 8 11 11 10 10 11 12 12 11 13 13 13 13 14 14 14 15 17 17 19 18 19 19 19 20 20 20 20 20
8 9 9 9 9 8 7 6 6 6 6 7 10 9 10 9 10 11 11 10 11 11 12 11 12 13 13 13 13 14 13 14 14 16 17 16 17 18 19 19 19 19 19 19 19
9 9 9 9 9 8 7 6 6 6 7 9 11 10 10 9 10 11 11 10 11 11 12 12 13 12 12 12 13 13 14 15 15 15 15 17 16 19 20 20 20 19 19 19 19
9 10 9 9 9 8 7 6 6 6 9 10 10 9 9 9 10 11 11 10 10 11 11 11 12 12 12 13 13 13 14 14 14 14 14 15 15 18 20 19 20 20 20 19 19
9 10 10 9 9 8 7 7 6 8 8 9 9 9 10 10 10 10 11 10 10 11 11 11 11 12 13 13 14 14 14 14 14 14 13 14 15 18 19 20 21 21 20 19 19
10 10 9 9 8 8 7 7 8 8 9 8 8 9 9 9 10 10 10 10 9 9 10 11 11 11 13 12 13 13 13 12 11 12 13 16 15 17 18 19 19 20 19 20 19
9 9 9 9 8 8 7 8 8 6 7 9 9 9 8 9 9 9 9 9 10 8 7 7 9 9 12 12 13 13 13 13 12 13 14 14 14 17 18 19 19 18 18 19 19
9 9 8 8 8 7 7 8 7 7 8 8 8 8 8 9 8 8 9 8 9 8 7 7 7 7 9 12 13 13 12 14 13 13 15 15 16 18 18 19 20 20 19 19 18
9 8 8 7 7 7 7 7 7 7 8 8 6 7 7 8 7 8 8 9 9 9 8 8 7 9 6 12 13 13 14 12 13 12 13 15 15 17 18 18 18 18 18 17 17
8 7 7 7 7 7 6 6 6 7 7 7 7 7 7 6 7 7 8 9 9 9 9 8 7 9 8 8 11 12 12 13 14 14 14 15 17 17 18 16 16 17 17 18 17
7 8 7 7 6 1 5 5 5 6 6 7 7 7 7 7 6 7 7 8 9 8 8 8 6 8 9 10 11 11 11 12 12 13 13 14 15 17 16 16 15 16 17 17 16
3 5 6 7 5 4 4 5 5 6 7 6 6 7 6 6 5 6 7 8 8 8 8 8 7 7 10 10 10 10 11 11 11 11 12 13 15 19 17 18 17 16 16 17 16
4 5 5 5 3 3 3 5 5 6 6 6 6 6 5 5 7 5 6 8 7 7 7 7 6 7 7 9 9 9 9 10 10 11 12 13 14 16 16 16 16 15 15 17 17
4 2 1 4 4 3 3 4 4 5 6 6 5 6 6 4 5 5 7 7 7 7 7 7 6 7 8 8 8 8 9 10 10 10 10 13 14 15 15 15 15 15 16 17 17
2 2 1 1 1 3 3 4 5 5 4 5 5 6 5 4 5 4 5 5 4 6 6 6 7 8 8 9 8 8 9 10 10 10 10 11 11 13 13 13 14 15 15 16 17
2 1 -0 2 2 3 4 4 5 4 5 5 5 4 4 6 6 6 5 5 4 4 5 4 5 6 7 8 8 8 10 10 11 11 11 11 12 13 13 14 14 14 14 15 15

GFSSW_850_temp_048.txt.gz
Temp
8 8 8 8 9 9 9 9 9 9 10 10 11 11 11 11 13 12 12 12 13 13 15 16 16 16 16 19 20 20 23 24 26 26 26 26 28 28 28 28 28 29 29 26 26
8 8 8 8 9 9 10 10 9 10 10 10 10 10 11 11 12 10 11 11 11 12 14 15 17 17 18 19 20 22 23 25 27 27 25 26 27 28 27 28 28 28 26 26 26
8 8 8 9 9 9 9 9 9 9 9 10 10 10 11 11 10 12 12 12 11 11 12 13 15 18 19 20 21 22 22 26 26 25 24 24 26 27 27 28 29 29 28 27 26
8 8 8 9 9 9 9 9 9 10 10 10 10 10 10 11 16 11 11 11 12 12 12 13 14 17 20 21 21 22 23 23 24 24 23 24 24 26 27 27 28 27 26 25 25
8 9 9 9 9 9 8 8 9 9 9 9 9 10 10 12 13 11 11 11 11 11 13 14 15 17 20 22 22 22 23 23 23 23 23 22 23 25 26 26 26 26 25 25 25
9 9 9 9 10 9 9 8 9 9 9 9 9 10 8 15 11 11 11 11 11 12 12 13 15 16 17 20 22 22 22 23 23 23 22 23 23 23 24 25 25 25 24 25 25
8 9 9 10 10 10 9 9 9 9 9 9 10 10 9 13 12 11 10 10 11 11 12 13 14 14 17 18 19 20 21 22 23 23 23 22 23 24 24 25 25 25 24 25 25
9 10 10 10 10 10 10 10 10 10 10 9 10 8 12 12 12 11 11 12 11 11 11 12 13 14 15 16 18 19 20 20 23 23 23 22 21 25 25 25 25 24 25 25 25
9 10 10 10 10 11 11 11 11 10 10 10 8 8 14 12 12 12 12 12 12 12 11 11 12 14 16 17 17 19 19 21 22 24 23 21 21 24 24 25 26 25 25 25 26
9 9 9 10 10 10 10 11 10 10 10 10 10 10 13 12 12 12 12 11 11 12 12 12 13 16 17 18 17 19 20 21 21 24 24 22 22 24 25 24 25 25 25 25 25
9 9 10 9 9 9 10 9 10 11 10 11 11 11 12 12 11 12 12 12 12 13 14 16 15 16 17 18 18 19 19 21 22 23 23 23 23 23 24 24 25 25 25 25 24
9 9 10 9 9 9 8 9 8 7 10 11 10 10 10 10 11 13 13 13 13 14 15 15 14 16 16 16 16 17 17 18 19 20 21 22 22 23 24 24 24 24 24 24 24
9 9 10 9 9 9 8 8 7 6 10 11 11 11 12 11 12 12 13 13 14 14 15 14 16 16 15 15 14 15 16 17 18 19 20 20 20 22 24 24 23 22 22 22 22
9 10 10 10 9 8 8 7 6 7 12 13 13 12 12 12 13 12 12 12 14 14 14 15 16 15 15 14 15 14 16 17 17 18 17 20 19 22 23 23 23 23 23 23 22
9 10 10 10 9 9 7 6 6 6 12 13 13 11 12 13 12 13 12 12 13 14 14 14 15 14 14 15 15 15 16 17 17 17 17 18 19 21 22 22 23 24 23 23 23
9 10 10 9 8 7 7 7 6 11 11 13 13 13 13 13 13 13 13 13 13 13 14 14 15 15 14 15 15 16 15 16 16 17 16 18 19 20 21 23 24 24 24 23 23
9 9 9 9 8 8 8 8 12 12 13 12 12 13 13 13 13 13 13 13 12 11 13 14 14 14 14 13 15 15 14 13 14 15 15 19 18 19 22 22 24 23 23 22 22
9 9 9 8 8 8 8 12 11 11 12 12 12 12 12 12 12 12 12 13 13 11 11 10 11 12 12 11 12 14 14 13 13 15 16 18 17 20 22 23 22 22 22 22 22
9 8 7 8 8 8 10 12 11 11 11 10 11 12 12 12 12 12 12 12 12 12 9 10 10 13 9 9 10 12 13 15 15 15 18 19 19 20 22 21 22 23 22 21 21
8 7 8 8 8 7 12 10 11 10 10 11 10 11 11 12 11 12 12 13 12 12 12 10 9 13 10 7 11 13 14 13 14 12 15 19 19 19 21 21 22 21 21 20 20
6 9 7 8 8 10 9 11 10 9 9 10 10 10 10 10 10 11 11 12 12 12 12 11 10 12 13 7 8 14 14 12 13 15 16 18 20 22 21 21 20 20 20 20 20
6 11 7 8 9 9 10 9 7 9 9 9 10 10 10 10 9 10 10 11 11 11 10 10 9 10 12 12 12 12 10 13 12 13 14 17 18 20 20 20 20 20 19 19 19
5 7 7 7 8 9 9 9 8 9 9 9 9 10 10 9 7 9 10 11 9 10 8 8 9 9 12 12 13 12 12 12 13 13 12 16 17 20 20 20 20 20 19 18 19
5 8 9 7 6 8 8 9 9 8 8 9 9 9 9 9 10 8 9 10 9 9 8 8 8 8 9 12 11 11 12 13 13 12 14 15 17 20 20 20 20 19 18 18 19
5 6 4 9 8 7 8 8 8 8 8 8 9 8 7 7 8 8 9 9 9 9 9 8 8 11 12 12 12 12 12 13 13 14 14 15 16 18 19 19 19 17 17 18 19
4 4 5 5 5 7 7 8 8 8 8 8 7 7 6 6 7 6 7 7 5 9 9 9 8 10 10 12 12 12 13 13 14 14 14 14 15 17 17 16 17 17 17 18 18
1 1 0 5 7 7 8 7 7 7 7 8 7 6 6 8 9 8 8 8 7 5 6 7 8 8 9 11 11 10 13 14 15 15 15 14 16 17 17 17 17 17 17 17 17